Regional Weather Roundup
Issued by NWS

Home | Current Version | Previous Version | Graphics & Text | Print | Product List | Glossary On
Versions: 1 2 3 4 5 6 7 8 9 10 11 12 13 14 15 16 17 18 19 20 21 22 23 24 25 26 27 28 29 30 31 32 33 34 35 36 37 38 39 40 41 42 43 44 45 46 47 48 49 50
000
ASUS44 KMEG 100000
RWRTN
TENNESSEE HOURLY STATE WEATHER ROUNDUP
NATIONAL WEATHER SERVICE MEMPHIS TN
600 PM CST FRI DEC 09 2016

TNZ002-004-019-021-049-052-054-088>092-100100-
WEST TENNESSEE

CITY           SKY/WX    TMP DP  RH WIND       PRES   REMARKS
MEMPHIS INTL   PTCLDY    31  19  61 N7        30.57S WCI  24
NWS MEMPHIS      N/A     30 N/A N/A MISG        N/A
JACKSON        CLEAR     28  20  71 CALM      30.57S
DYERSBURG      CLEAR     28  16  59 N3        30.57S
UNION CITY     CLEAR     25  16  68 CALM      30.56S
PARIS          CLEAR     23  16  74 CALM      30.55S
$$

TNZ008-025-027-028-033-062-065-066-100100-
NORTH MIDDLE TENNESSEE

CITY           SKY/WX    TMP DP  RH WIND       PRES   REMARKS
NASHVILLE      CLEAR     30  15  53 N8        30.55S WCI  22
CLARKSVILLE    CLEAR     28  15  58 CALM      30.54F
SMYRNA         CLEAR     31  19  61 NE7       30.56S WCI  24
CROSSVILLE     CLEAR     25  14  63 N5        30.46S WCI  19
$$

TNZ061-075-076-078-094-096-097-100100-
SOUTH MIDDLE TENNESSEE

CITY           SKY/WX    TMP DP  RH WIND       PRES   REMARKS
TULLAHOMA      CLEAR     27  12  54 N6        30.50S WCI  20
WINCHESTER     CLEAR     28  18  64 N3        30.51R
SHELBYVILLE    CLEAR     30  18  59 NE3       30.54R
$$

TNZ017-018-042-046-047-100100-
NORTHEAST TENNESSEE

CITY           SKY/WX    TMP DP  RH WIND       PRES   REMARKS
TRI CITIES     CLEAR     26  13  57 W5        30.46R WCI  20
$$

TNZ012-013-036-069-073-074-100100-
CENTRAL EAST TENNESSEE

CITY           SKY/WX    TMP DP  RH WIND       PRES   REMARKS
KNOXVILLE      CLEAR     30  15  53 NE5       30.49S WCI  25
OAK RIDGE      CLEAR     30  17  58 CALM      30.52R
GATLINBURG     CLEAR     27  14  59 CALM      30.49R
$$

TNZ083-085-099-100100-
SOUTHEAST TENNESSEE

CITY           SKY/WX    TMP DP  RH WIND       PRES   REMARKS
CHATTANOOGA    PTCLDY    34  15  46 N7        30.50R WCI  28
$$

SKY/WX REPORTED AS FAIR MEANS FEW OR NO CLOUDS BELOW
12 THOUSAND FEET.





USA.gov is the U.S. government's official web portal to all federal, state and local government web resources and services.